Stations météo

réclame
Mon MeteoGroup
Treviso/S. Angelo, Italie (16099): Température de l'air & dewpoint: 08.08.2018 23:00:00 - 14.08.2018 23:00:00 (CEST)Treviso/S. Angelo, Italie (16099): Vitesse du vent: 08.08.2018 23:00:00 - 14.08.2018 23:00:00 (CEST)Treviso/S. Angelo, Italie (16099): Direction du vent: 08.08.2018 23:00:00 - 14.08.2018 23:00:00 (CEST)Treviso/S. Angelo, Italie (16099): reduced air pressure: 08.08.2018 23:00:00 - 14.08.2018 23:00:00 (CEST)Treviso/S. Angelo, Italie (16099): visibility: 08.08.2018 23:00:00 - 14.08.2018 23:00:00 (CEST)Treviso/S. Angelo, Italie (16099): Quantités de précipitations: 08.08.2018 23:00:00 - 14.08.2018 23:00:00 (CEST)
Date & Time tt [°C] td [°C] ff [km/h] ff [knt] dd ppp [hPa] vv [km] rr [mm]
14.08.2018 23:00:00 20,3 18,5 8 4 N 1014,7 20 0,0
14.08.2018 22:00:00 - - - - - - - -
14.08.2018 21:00:00 - - - - - - - -
14.08.2018 20:00:00 21,7 17,5 28 15 ENE 1013,2 10 -
14.08.2018 19:00:00 - - - - - - - -
14.08.2018 18:00:00 - - - - - - - -
14.08.2018 17:00:00 28,2 19,9 5 3 N 1010,8 20 0,0
14.08.2018 16:00:00 - - - - - - - -
14.08.2018 15:00:00 - - - - - - - -
14.08.2018 14:00:00 26,3 20,2 9 5 SW 1012,0 15 -
14.08.2018 13:00:00 - - - - - - - -
14.08.2018 12:00:00 - - - - - - - -
14.08.2018 11:00:00 25,4 19,7 5 3 E 1012,1 15 0,0
14.08.2018 10:00:00 - - - - - - - -
14.08.2018 09:00:00 - - - - - - - -
14.08.2018 08:00:00 20,8 19,7 4 2 N 1011,8 5 -
14.08.2018 07:00:00 - - - - - - - -
14.08.2018 06:00:00 - - - - - - - -
14.08.2018 05:00:00 20,5 19,1 2 1 N 1010,2 - 0,0
14.08.2018 04:00:00 - - - - - - - -
14.08.2018 03:00:00 - - - - - - - -
14.08.2018 02:00:00 20,0 19,5 4 2 N 1010,6 - -
14.08.2018 01:00:00 - - - - - - - -
14.08.2018 00:00:00 - - - - - - - -
13.08.2018 23:00:00 20,1 19,0 4 2 WSW 1010,8 20 0,0
13.08.2018 22:00:00 - - - - - - - -
13.08.2018 21:00:00 - - - - - - - -
13.08.2018 20:00:00 23,3 17,0 21 11 SSE 1011,0 20 -
13.08.2018 19:00:00 - - - - - - - -
13.08.2018 18:00:00 - - - - - - - -
13.08.2018 17:00:00 26,8 18,3 15 8 W 1010,5 15 0,0
13.08.2018 16:00:00 - - - - - - - -
13.08.2018 15:00:00 - - - - - - - -
13.08.2018 14:00:00 31,5 19,3 8 4 N 1011,9 20 -
13.08.2018 13:00:00 - - - - - - - -
13.08.2018 12:00:00 - - - - - - - -
13.08.2018 11:00:00 28,1 18,9 5 3 N 1013,4 20 0,0
13.08.2018 10:00:00 - - - - - - - -
13.08.2018 09:00:00 - - - - - - - -
13.08.2018 08:00:00 23,1 17,8 5 3 NNE 1013,3 25 -
13.08.2018 07:00:00 - - - - - - - -
13.08.2018 06:00:00 - - - - - - - -
13.08.2018 05:00:00 21,4 17,8 2 1 N 1013,1 - 0,0
13.08.2018 04:00:00 - - - - - - - -
13.08.2018 03:00:00 - - - - - - - -
13.08.2018 02:00:00 23,0 20,3 4 2 SW 1014,5 - -
13.08.2018 01:00:00 - - - - - - - -
13.08.2018 00:00:00 - - - - - - - -
12.08.2018 23:00:00 25,4 19,7 4 2 N 1014,7 25 0,0
12.08.2018 22:00:00 - - - - - - - -
12.08.2018 21:00:00 - - - - - - - -
12.08.2018 20:00:00 28,9 19,3 5 3 SSE 1014,4 25 -
12.08.2018 19:00:00 - - - - - - - -
12.08.2018 18:00:00 - - - - - - - -
12.08.2018 17:00:00 30,8 18,1 8 4 SE 1015,4 30 0,0
12.08.2018 16:00:00 - - - - - - - -
12.08.2018 15:00:00 - - - - - - - -
12.08.2018 14:00:00 31,0 16,8 8 4 N 1017,4 25 -
12.08.2018 13:00:00 - - - - - - - -
12.08.2018 12:00:00 - - - - - - - -
12.08.2018 11:00:00 28,8 15,4 22 12 E 1018,6 25 0,0
12.08.2018 10:00:00 - - - - - - - -
12.08.2018 09:00:00 - - - - - - - -
12.08.2018 08:00:00 24,2 17,3 13 7 NE 1018,4 25 -
12.08.2018 07:00:00 - - - - - - - -
12.08.2018 06:00:00 - - - - - - - -
12.08.2018 05:00:00 23,1 17,2 9 5 NNE 1017,9 - 0,0
12.08.2018 04:00:00 - - - - - - - -
12.08.2018 03:00:00 - - - - - - - -
12.08.2018 02:00:00 23,1 18,0 11 6 N 1018,3 - -
12.08.2018 01:00:00 - - - - - - - -
12.08.2018 00:00:00 - - - - - - - -
11.08.2018 23:00:00 24,9 18,0 11 6 NE 1017,9 20 0,0
11.08.2018 22:00:00 - - - - - - - -
11.08.2018 21:00:00 - - - - - - - -
11.08.2018 20:00:00 28,4 20,5 5 3 NE 1016,2 15 -
11.08.2018 19:00:00 - - - - - - - -
11.08.2018 18:00:00 - - - - - - - -
11.08.2018 17:00:00 29,4 20,2 5 3 SW 1016,2 20 0,0
11.08.2018 16:00:00 - - - - - - - -
11.08.2018 15:00:00 - - - - - - - -
11.08.2018 14:00:00 31,4 19,6 8 4 N 1017,3 10 -
11.08.2018 13:00:00 - - - - - - - -
11.08.2018 12:00:00 - - - - - - - -
11.08.2018 11:00:00 28,5 20,1 13 7 E 1018,6 10 0,0
11.08.2018 10:00:00 - - - - - - - -
11.08.2018 09:00:00 - - - - - - - -
11.08.2018 08:00:00 23,3 18,8 8 4 NE 1018,1 10 -
11.08.2018 07:00:00 - - - - - - - -
11.08.2018 06:00:00 - - - - - - - -
11.08.2018 05:00:00 23,7 20,2 5 3 N 1017,5 - 0,0
11.08.2018 04:00:00 - - - - - - - -
11.08.2018 03:00:00 - - - - - - - -
11.08.2018 02:00:00 25,0 21,3 4 2 N 1018,3 - -
11.08.2018 01:00:00 - - - - - - - -
11.08.2018 00:00:00 - - - - - - - -
10.08.2018 23:00:00 26,8 21,3 2 1 N 1018,2 20 0,0
10.08.2018 22:00:00 - - - - - - - -
10.08.2018 21:00:00 - - - - - - - -
10.08.2018 20:00:00 30,4 18,0 4 2 S 1016,9 25 -
10.08.2018 19:00:00 - - - - - - - -
10.08.2018 18:00:00 - - - - - - - -
10.08.2018 17:00:00 32,2 17,0 16 9 SW 1017,4 25 0,0
10.08.2018 16:00:00 - - - - - - - -
10.08.2018 15:00:00 - - - - - - - -
10.08.2018 14:00:00 31,2 17,4 9 5 SW 1018,7 10 -
10.08.2018 13:00:00 - - - - - - - -
10.08.2018 12:00:00 - - - - - - - -
10.08.2018 11:00:00 27,3 21,5 2 1 N 1019,3 10 0,0
10.08.2018 10:00:00 - - - - - - - -
10.08.2018 09:00:00 - - - - - - - -
10.08.2018 08:00:00 23,1 19,4 0 0 N 1018,1 10 -
10.08.2018 07:00:00 - - - - - - - -
10.08.2018 06:00:00 - - - - - - - -
10.08.2018 05:00:00 21,1 18,3 4 2 N 1016,8 - 0,0
10.08.2018 04:00:00 - - - - - - - -
10.08.2018 03:00:00 - - - - - - - -
10.08.2018 02:00:00 23,2 18,0 4 2 W 1016,4 - -
10.08.2018 01:00:00 - - - - - - - -
10.08.2018 00:00:00 - - - - - - - -
09.08.2018 23:00:00 26,8 17,1 16 9 W 1017,2 - 0,0
09.08.2018 22:00:00 - - - - - - - -
09.08.2018 21:00:00 - - - - - - - -
09.08.2018 20:00:00 29,2 19,6 9 5 SW 1014,7 10 -
09.08.2018 19:00:00 - - - - - - - -
09.08.2018 18:00:00 - - - - - - - -
09.08.2018 17:00:00 32,7 21,9 9 5 SE 1014,4 10 0,0
09.08.2018 16:00:00 - - - - - - - -
09.08.2018 15:00:00 - - - - - - - -
09.08.2018 14:00:00 32,6 21,4 8 4 SE 1015,6 20 -
09.08.2018 13:00:00 - - - - - - - -
09.08.2018 12:00:00 - - - - - - - -
09.08.2018 11:00:00 29,9 21,7 5 3 E 1016,3 25 0,0
09.08.2018 10:00:00 - - - - - - - -
09.08.2018 09:00:00 - - - - - - - -
09.08.2018 08:00:00 23,9 19,4 2 1 N 1016,1 20 -
09.08.2018 07:00:00 - - - - - - - -
09.08.2018 06:00:00 - - - - - - - -
09.08.2018 05:00:00 22,5 19,4 4 2 NW 1015,2 - 0,0
09.08.2018 04:00:00 - - - - - - - -
09.08.2018 03:00:00 - - - - - - - -
09.08.2018 02:00:00 23,3 19,7 2 1 N 1015,4 - -
09.08.2018 01:00:00 - - - - - - - -
09.08.2018 00:00:00 - - - - - - - -
08.08.2018 23:00:00 24,8 20,2 4 2 NNW 1015,0 15 0,0

tt = Température de l'air
td = dewpoint
ff = Vitesse du vent
dd = Direction du vent
ppp = reduced air pressure
vv = visibility
rr = Quantités de précipitations

stations d'obs. à proximité